{"data":{"norad_id":67970,"epoch":"2026-05-25T00:06:57.900384Z","epoch_age_seconds":64700,"freshness":"FRESH","line1":"1 67970U 26038K   26145.00483681  .00011207  00000+0  34904-3 0  9999","line2":"2 67970  97.2846 155.0188 0001405  95.1701 264.9702 15.33435758 14939","mean_motion":15.33435758,"eccentricity":0.0001405,"inclination_deg":97.2846,"raan_deg":155.0188,"arg_perigee_deg":95.1701,"mean_anomaly_deg":264.9702,"bstar":0.00034904,"rev_number":1493,"period_min":93.90677062847,"perigee_km":464.60913137798,"apogee_km":466.5322132339,"semimajor_km":6843.7076723059,"source":"CELESTRAK","updated_at":"2026-05-25T13:38:21.774647Z"}}